Zurück zum Katalog

COSMOS 375 DEB

AktivLEO
NORAD 4727·DEBRIS·🇷🇺 Russia

Gestartet Oct 30, 1970 von Baikonur Cosmodrome

Loading…

Nächste Überflüge (nächste 24 Stunden)

TLE

AktuellSource: Space-Track

Epoche: Sep 14, 2026, 07:26 UTC

1 04727U 70091Y   26257.30987805  .00005798  00000-0  10122-2 0  9996
2 04727  62.6932 359.0705 0398170 192.2396 166.8773 14.28065920766553

Verfolge COSMOS 375 DEB in Echtzeit mit AllMySat

Download on the App Store